DW3422 Weather Reports


Display with metric or nautical units.
time (UTC)temp
F
wind
direction
speed
MPH
gust
MPH
rain 1hr
in
rain 24hr
in
rain mn
in
humidity
%
barometer
mb
20260505041524 69 152 1.0 0.0 0.00 0.00 0.00 63 1009.3
20260505040024 70 155 1.0 0.0 0.00 0.00 0.00 62 1009.0
20260505034523 71 149 0.0 0.0 0.00 0.00 0.00 60 1008.8
20260505033025 72 150 0.0 0.0 0.00 0.00 0.00 60 1008.6
20260505031522 73 151 1.0 0.0 0.00 0.00 0.00 57 1008.4
20260505030027 74 149 1.0 0.0 0.00 0.00 0.00 55 1008.3
20260505024522 75 126 2.0 0.0 0.00 0.00 0.00 53 1008.0
20260505023022 76 195 2.0 0.0 0.00 0.00 0.00 51 1007.9
20260505021520 76 171 3.0 0.0 0.00 0.00 0.00 48 1008.0
20260505020019 77 198 2.0 0.0 0.00 0.00 0.00 43 1007.9
20260505014519 77 163 3.0 0.0 0.00 0.00 0.00 43 1007.9
20260505013018 77 189 3.0 0.0 0.00 0.00 0.00 42 1007.9
20260505011520 78 154 3.0 0.0 0.00 0.00 0.00 40 1008.1
20260505010017 78 178 3.0 0.0 0.00 0.00 0.00 40 1008.2
20260505004534 78 172 3.0 0.0 0.00 0.00 0.00 39 1008.1
20260505003015 79 194 3.0 0.0 0.00 0.00 0.00 38 1008.2
20260505001515 79 183 2.0 0.0 0.00 0.00 0.00 39 1008.2
20260505000020 79 153 3.0 0.0 0.00 0.00 0.00 38 1008.3
20260504234525 79 199 2.0 0.0 0.00 0.00 0.00 35 1008.5
20260504233013 79 192 3.0 0.0 0.00 0.00 0.00 36 1008.5
20260504231531 79 239 3.0 0.0 0.00 0.00 0.00 35 1008.5
20260504230013 79 255 4.0 0.0 0.00 0.00 0.00 34 1008.6
20260504224511 79 205 2.0 0.0 0.00 0.00 0.00 35 1008.8
20260504223011 79 42 3.0 0.0 0.00 0.00 0.00 33 1009.0
20260504221510 79 9 2.0 0.0 0.00 0.00 0.00 36 1009.2
20260504220010 79 292 3.0 0.0 0.00 0.00 0.00 41 1009.3
20260504214515 79 194 3.0 0.0 0.00 0.00 0.00 40 1009.5
20260504213009 79 182 3.0 0.0 0.00 0.00 0.00 39 1009.5
20260504211508 79 278 2.0 0.0 0.00 0.00 0.00 46 1009.4
20260504210010 79 196 3.0 0.0 0.00 0.00 0.00 41 1009.6
20260504204502 78 189 2.0 0.0 0.00 0.00 0.00 44 1009.7
20260504203002 78 325 2.0 0.0 0.00 0.00 0.00 45 1009.7
20260504201602 77 219 2.0 0.0 0.00 0.00 0.00 44 1009.7
20260504194558 76 165 3.0 0.0 0.00 0.00 0.00 47 1009.7
20260504193054 76 158 3.0 0.0 0.00 0.00 0.00 48 1009.7
20260504191552 75 327 2.0 0.0 0.00 0.00 0.00 43 1009.9
20260504190056 74 182 2.0 0.0 0.00 0.00 0.00 48 1009.9
20260504184600 73 188 3.0 0.0 0.00 0.00 0.00 48 1010.1
20260504183046 72 170 2.0 0.0 0.00 0.00 0.00 52 1010.0
20260504181538 70 167 2.0 0.0 0.00 0.00 0.00 56 1010.1
20260504180034 68 194 3.0 0.0 0.00 0.00 0.00 59 1010.1
20260504174530 67 169 3.0 0.0 0.00 0.00 0.00 60 1010.2
20260504173027 66 167 3.0 0.0 0.00 0.00 0.00 63 1010.1
20260504171537 65 186 2.0 0.0 0.00 0.00 0.00 63 1010.1
20260504081527 60 17 0.0 0.0 0.00 0.00 0.00 71 1008.3